Weather History for South Pass, WY

Change the Weather History Date:

Sunday, November 25, 2012

  Actual Average (KLND) Record (KLND)
Temperature  
Mean Temperature 29 °F 26 °F  
Max Temperature 35 °F 37 °F 67 °F (1949)
Min Temperature 23 °F 15 °F -15 °F (1993)
Degree Days  
Heating Degree Days 36 39  
Month to date heating degree days 810  
Since 1 July heating degree days 1671  
Cooling Degree Days 0 0  
Month to date cooling degree days 0  
Year to date cooling degree days 472  
Moisture  
Dew Point 23 °F    
Average Humidity 74    
Maximum Humidity 100    
Minimum Humidity 44    
Precipitation  
Precipitation 0.00 in 0.03 in 0.56 in (1983)
Month to date precipitation 0.74  
Year to date precipitation 11.96  
Sea Level Pressure  
Sea Level Pressure 29.86 in    
Wind  
Wind Speed 9 mph ()    
Max Wind Speed 26 mph    
Max Gust Speed 39 mph    
Visibility 9.6 miles    
Events Snow    
T = Trace of Precipitation, MM = Missing Value Source: Averaged Metar Reports

Daily Weather History Graph

Daily Weather History Graph

Search for Another Location

Airport:

Trip Planner

Search our weather history database for the weather conditions in past years. The results will help you decide how hot, cold, wet, or windy it might be!

Date:

Astronomy

Nov. 25, 2012 Rise Set
Actual Time 7:19 AM MST 4:45 PM MST
Civil Twilight 6:47 AM MST 5:16 PM MST
Nautical Twilight 6:13 AM MST 5:51 PM MST
Astronomical Twilight 5:39 AM MST 6:24 PM MST
Moon 3:06 PM MST (11/25) 4:33 AM MST (11/25)
Length of Visible Light 10h 28m
Length of Day
9h 26m
Waxing Gibbous, 93% of the Moon is Illuminated
Nov 25
Waxing Gibbous
Nov 28
Full
Dec 6
Last Quarter
Dec 13
New
Dec 19
First Quarter

Hourly Weather History & Observations

Time (MST) Temp. Windchill Dew Point Humidity Pressure Visibility Wind Dir Wind Speed Gust Speed Precip Events Conditions
12:15 AM 30.2 °F 24.3 °F 26.6 °F 86% 29.96 in 10.0 mi South 5.8 mph - N/A   Overcast
12:35 AM 32.0 °F 27.5 °F 28.4 °F 87% 29.96 in 10.0 mi SSW 4.6 mph - N/A   Overcast
12:55 AM 32.0 °F 28.7 °F 28.4 °F 87% 29.94 in 10.0 mi South 3.5 mph - N/A   Overcast
1:15 AM 32.0 °F - 28.4 °F 87% 29.94 in 10.0 mi Calm Calm - N/A   Overcast
1:35 AM 32.0 °F 26.4 °F 28.4 °F 87% 29.92 in 10.0 mi ESE 5.8 mph - N/A   Overcast
1:55 AM 32.0 °F 26.4 °F 28.4 °F 87% 29.92 in 10.0 mi SE 5.8 mph - N/A   Mostly Cloudy
2:15 AM 32.0 °F 28.7 °F 28.4 °F 87% 29.92 in 10.0 mi ESE 3.5 mph - N/A   Scattered Clouds
2:35 AM 32.0 °F 27.5 °F 26.6 °F 80% 29.92 in 10.0 mi SSE 4.6 mph - N/A   Scattered Clouds
2:55 AM 30.2 °F - 26.6 °F 86% 29.91 in 10.0 mi Calm Calm - N/A   Clear
3:15 AM 32.0 °F - 26.6 °F 80% 29.90 in 10.0 mi Calm Calm - N/A   Clear
3:35 AM 30.2 °F 26.7 °F 26.6 °F 86% 29.90 in 10.0 mi SE 3.5 mph - N/A   Clear
3:55 AM 30.2 °F - 26.6 °F 86% 29.88 in 10.0 mi Calm Calm - N/A   Clear
4:15 AM 30.2 °F - 26.6 °F 86% 29.87 in 10.0 mi Calm Calm - N/A   Clear
4:35 AM 32.0 °F - 26.6 °F 80% 29.87 in 10.0 mi Calm Calm - N/A   Clear
4:55 AM 32.0 °F 23.6 °F 24.8 °F 75% 29.85 in 10.0 mi West 10.4 mph - N/A   Clear
5:15 AM 32.0 °F 22.1 °F 23.0 °F 69% 29.84 in 10.0 mi West 13.8 mph 19.6 mph N/A   Clear
5:35 AM 32.0 °F 21.6 °F 23.0 °F 69% 29.84 in 10.0 mi West 15.0 mph 20.7 mph N/A   Clear
5:55 AM 32.0 °F 23.0 °F 21.2 °F 64% 29.83 in 10.0 mi West 11.5 mph 23.0 mph N/A   Clear
6:15 AM 32.0 °F 21.6 °F 19.4 °F 60% 29.83 in 10.0 mi West 15.0 mph 21.9 mph N/A   Clear
6:35 AM 32.0 °F 20.5 °F 19.4 °F 60% 29.82 in 10.0 mi West 18.4 mph 24.2 mph N/A   Clear
6:55 AM 32.0 °F 20.8 °F 17.6 °F 55% 29.81 in 10.0 mi West 17.3 mph 28.8 mph N/A   Clear
7:15 AM 32.0 °F 19.5 °F 15.8 °F 51% 29.81 in 10.0 mi West 21.9 mph 29.9 mph N/A   Clear
7:35 AM 33.8 °F 22.8 °F 15.8 °F 48% 29.81 in 10.0 mi West 18.4 mph 26.5 mph N/A   Clear
8:15 AM 32.0 °F 18.9 °F 15.8 °F 51% 29.80 in 10.0 mi WSW 24.2 mph 32.2 mph N/A   Scattered Clouds
8:35 AM 33.8 °F 21.6 °F 14.0 °F 44% 29.80 in 10.0 mi West 23.0 mph 34.5 mph N/A   Scattered Clouds
9:15 AM 33.8 °F 21.6 °F 19.4 °F 56% 29.79 in 10.0 mi West 23.0 mph 36.8 mph N/A   Clear
9:35 AM 32.0 °F 18.4 °F 23.0 °F 69% 29.79 in 10.0 mi West 26.5 mph 39.1 mph N/A   Scattered Clouds
9:55 AM 32.0 °F 19.5 °F 24.8 °F 75% 29.80 in 10.0 mi West 21.9 mph 35.7 mph N/A   Scattered Clouds
10:15 AM 32.0 °F 20.5 °F 26.6 °F 80% 29.81 in 10.0 mi West 18.4 mph 28.8 mph N/A   Clear
10:35 AM 33.8 °F 22.8 °F 26.6 °F 75% 29.82 in 10.0 mi West 18.4 mph 25.3 mph N/A   Clear
10:55 AM 32.0 °F 20.8 °F 28.4 °F 87% 29.83 in 10.0 mi West 17.3 mph 26.5 mph N/A   Clear
11:15 AM 32.0 °F 25.6 °F 28.4 °F 87% 29.83 in 10.0 mi NW 6.9 mph 18.4 mph N/A   Scattered Clouds
11:35 AM 33.8 °F 28.6 °F 26.6 °F 75% 29.84 in 10.0 mi NW 5.8 mph - N/A   Mostly Cloudy
11:55 AM 33.8 °F 27.0 °F 26.6 °F 75% 29.83 in 10.0 mi WNW 8.1 mph - N/A   Overcast
12:15 PM 33.8 °F 24.8 °F 26.6 °F 75% 29.83 in 10.0 mi WNW 12.7 mph 20.7 mph N/A   Overcast
12:35 PM 33.8 °F 26.4 °F 26.6 °F 75% 29.83 in 10.0 mi WNW 9.2 mph - N/A   Overcast
1:15 PM 35.6 °F 25.9 °F 26.6 °F 70% 29.82 in 10.0 mi West 16.1 mph 26.5 mph N/A   Overcast
1:35 PM 35.6 °F 26.6 °F 24.8 °F 65% 29.83 in 10.0 mi West 13.8 mph 21.9 mph N/A   Overcast
1:55 PM 35.6 °F 26.6 °F 23.0 °F 60% 29.82 in 10.0 mi West 13.8 mph 18.4 mph N/A   Mostly Cloudy
2:15 PM 33.8 °F 23.2 °F 23.0 °F 65% 29.82 in 10.0 mi West 17.3 mph 32.2 mph N/A   Scattered Clouds
2:35 PM 33.8 °F 24.8 °F 24.8 °F 70% 29.83 in 10.0 mi West 12.7 mph 25.3 mph N/A   Clear
2:55 PM 33.8 °F 24.8 °F 26.6 °F 75% 29.84 in 10.0 mi West 12.7 mph 23.0 mph N/A   Clear
3:15 PM 33.8 °F 24.3 °F 26.6 °F 75% 29.84 in 10.0 mi West 13.8 mph 19.6 mph N/A   Clear
3:55 PM 33.8 °F 25.3 °F 23.0 °F 65% 29.85 in 10.0 mi West 11.5 mph 18.4 mph N/A   Clear
4:15 PM 33.8 °F 27.0 °F 23.0 °F 65% 29.85 in 10.0 mi West 8.1 mph - N/A   Clear
4:35 PM 32.0 °F 25.6 °F 21.2 °F 64% 29.86 in 10.0 mi West 6.9 mph - N/A   Clear
4:55 PM 32.0 °F 23.0 °F 21.2 °F 64% 29.86 in 10.0 mi West 11.5 mph 16.1 mph N/A   Clear
5:15 PM 32.0 °F 23.6 °F 19.4 °F 60% 29.86 in 10.0 mi West 10.4 mph - N/A   Clear
5:35 PM 32.0 °F 22.5 °F 15.8 °F 51% 29.86 in 10.0 mi West 12.7 mph 20.7 mph N/A   Clear
5:55 PM 32.0 °F 23.6 °F 14.0 °F 48% 29.87 in 10.0 mi West 10.4 mph - N/A   Clear
6:15 PM 32.0 °F 21.6 °F 12.2 °F 44% 29.87 in 10.0 mi West 15.0 mph 21.9 mph N/A   Clear
6:35 PM 32.0 °F 22.5 °F 15.8 °F 51% 29.87 in 10.0 mi WSW 12.7 mph 21.9 mph N/A   Clear
6:55 PM 32.0 °F 23.0 °F 17.6 °F 55% 29.88 in 10.0 mi West 11.5 mph 17.3 mph N/A   Clear
7:15 PM 30.2 °F 20.8 °F 17.6 °F 60% 29.88 in 10.0 mi West 11.5 mph 17.3 mph N/A   Clear
7:35 PM 32.0 °F 24.2 °F 15.8 °F 51% 29.89 in 10.0 mi WNW 9.2 mph - N/A   Clear
7:55 PM 26.6 °F 19.1 °F 23.0 °F 86% 29.91 in 10.0 mi North 6.9 mph - N/A   Clear
8:15 PM 26.6 °F 19.1 °F 24.8 °F 93% 29.92 in 10.0 mi North 6.9 mph - N/A   Mostly Cloudy
8:35 PM 26.6 °F 18.2 °F 24.8 °F 93% 29.92 in 10.0 mi North 8.1 mph - N/A   Overcast
8:55 PM 26.6 °F 17.5 °F 23.0 °F 86% - 10.0 mi North 9.2 mph - N/A   Overcast
9:15 PM 26.6 °F 17.5 °F 24.8 °F 93% - 10.0 mi North 9.2 mph - N/A   Overcast
9:35 PM 24.8 °F 16.9 °F 23.0 °F 93% - 10.0 mi North 6.9 mph - N/A   Overcast
9:55 PM 23.0 °F 13.1 °F 23.0 °F 100% - 7.0 mi North 9.2 mph - N/A   Overcast
10:15 PM 23.0 °F 11.7 °F 23.0 °F 100% - 10.0 mi North 11.5 mph - N/A   Overcast
10:35 PM 23.0 °F 12.4 °F 23.0 °F 100% - 10.0 mi North 10.4 mph - N/A   Overcast
11:15 PM 23.0 °F 11.7 °F 23.0 °F 100% - 7.0 mi North 11.5 mph 16.1 mph N/A   Overcast
11:35 PM 23.0 °F 10.6 °F 23.0 °F 100% - 1.2 mi NNW 13.8 mph - N/A   Overcast
11:55 PM 23.0 °F 12.4 °F 23.0 °F 100% - 0.2 mi North 10.4 mph - N/A Snow Light Snow